Tracking 31027 objects as of 19-Jul-2025
HD Live streaming from Space Station
objects crossing your sky now

STARLINK-32681

Track STARLINK-32681 now!
10-day predictions
STARLINK-32681 is classified as:


NORAD ID: 62506
Int'l Code: 2025-003V
Perigee: 489.6 km
Apogee: 490.7 km
Inclination: 43.0 °
Period: 94.3 minutes
Semi major axis: 6861 km
RCS: Unknown
Launch date: January 6, 2025
Source: United States (US)
Launch site: AIR FORCE EASTERN TEST RANGE (AFETR)
Your satellite tracking list
STARLINK-1243
Track 1 satellite(s)




NASA's NSSDC Master Catalog

Two Line Element Set (TLE):
1 62506U 25003V   25199.55772394  .00014431  00000-0  53271-3 0  9991
2 62506  42.9981 152.6631 0000782   8.2351 351.8513 15.27591045 31070
Source of the keplerian elements: AFSPC